Location: Bukit Nyuki
(2.5885°N, 113.7476°E)
Time: 13:47:36
(UTC+00:00)

Ariane H10-3 - Pass Details

Date: 18 May 2021
Orbit: 315 x 24214 km, 7.4° (Epoch: 15 June)

Event Time Altitude Azimuth Distance (km) Brightness Sun altitude
Exits shadow 20:29:51 15° 85° (E) 961 4.4 -25.1°
Drops below altitude 10° 20:30:18 10° 85° (E) 1,206 5.0 -25.0°
Sets 20:32:13 0° 84° (E) 2,239 6.7 -24.6°
